Wetbulb
59.47 59.54 59.35 59.35 59.31 59.11 59.15 59.24 59.41 59.54 59.87 59.95 60.06 59.93 60.05 59.84 59.32 55.02 47.81 56.48 60.03 68.98 66.72 62.92 58.48 57.94 58.72 57.99 59.61 57.39 49.61 46.81 49.27 50.23 51.65 57.39 56.42 59.81 61.36 59.39 59.44 57.80 59.08 56.31 56.56
59.04 59.19 59.19 59.01 58.95 58.92 58.80 58.77 59.02 59.24 59.36 59.61 59.57 59.60 59.34 59.40 54.67 51.02 62.18 68.32 69.27 69.57 59.50 56.46 55.04 56.74 53.73 55.38 57.50 53.65 46.97 50.09 54.60 54.78 52.48 56.83 56.63 57.87 58.47 57.55 53.29 52.41 54.95 55.95 56.77
58.60 58.84 58.74 58.66 58.72 58.26 58.30 58.49 58.56 58.99 59.11 59.08 59.16 59.15 59.06 57.81 53.46 52.35 69.71 69.94 69.86 67.71 55.80 55.27 55.56 55.80 52.25 54.50 55.38 51.90 50.41 52.70 55.91 56.98 56.80 56.57 56.22 59.28 57.10 54.30 53.06 51.47 52.67 54.26 54.61
58.03 58.54 58.59 58.30 58.14 58.02 58.14 58.07 58.35 58.76 58.70 58.71 58.66 59.18 59.01 55.44 48.45 56.43 70.94 70.97 70.13 60.67 54.94 53.68 56.06 53.49 51.75 51.29 55.34 50.30 53.71 55.68 56.03 57.85 57.50 56.71 58.74 56.99 57.73 57.64 58.27 55.15 55.04 54.83 54.03
57.47 57.93 57.89 57.72 57.67 57.49 57.57 57.54 57.76 57.78 57.80 58.12 58.48 59.38 54.85 51.17 54.20 63.64 71.09 69.72 61.33 55.12 51.99 51.29 56.17 54.88 52.46 54.26 54.15 51.71 54.11 55.55 57.16 56.70 57.22 59.71 57.76 57.55 57.83 57.65 56.42 55.86 55.66 54.46 53.75
56.93 57.20 57.14 57.07 56.97 56.86 56.75 56.71 56.48 56.66 57.34 58.32 58.74 59.26 54.03 48.79 57.81 64.35 60.84 58.20 55.30 53.23 53.40 51.56 53.47 56.99 55.85 54.16 52.04 54.75 54.42 54.31 55.05 55.73 57.55 57.70 56.79 57.96 59.09 56.64 55.52 55.15 54.36 54.31 54.28
56.64 56.72 56.72 56.57 56.52 56.47 56.35 55.94 55.77 56.58 58.45 59.00 59.57 58.73 51.81 52.39 58.92 59.53 56.64 53.55 55.01 55.23 54.59 54.88 60.74 57.95 55.60 53.70 55.74 54.19 51.96 53.66 55.05 56.11 55.95 58.93 55.25 56.53 59.43 56.25 54.56 54.62 54.86 54.80 54.32
56.56 56.43 56.20 56.38 56.15 56.32 56.27 56.16 56.21 58.59 59.09 59.36 60.65 54.52 49.32 55.60 57.07 55.39 54.66 55.60 56.58 55.08 54.07 60.17 61.51 58.39 55.78 54.51 54.18 52.88 50.91 47.75 52.44 57.28 57.60 57.33 50.55 58.00 57.69 55.05 53.81 54.73 55.06 55.36 55.00
56.43 55.98 55.75 55.92 55.94 56.11 55.60 55.39 58.01 59.71 59.77 60.02 53.91 51.75 48.31 58.86 55.67 56.97 55.94 55.18 54.76 55.06 54.49 64.32 59.10 54.94 53.52 48.80 45.15 47.70 44.36 47.43 51.40 56.57 56.84 55.00 51.52 56.19 56.78 55.29 54.11 54.54 54.81 55.13 55.07
56.19 55.70 55.22 55.37 55.73 55.22 54.49 55.70 59.24 58.57 58.74 59.54 57.63 48.71 51.50 52.59 55.28 56.19 56.72 57.31 54.73 53.80 54.99 55.64 52.51 50.82 48.56 46.80 42.01 42.77 45.18 46.84 48.97 53.12 55.80 53.96 54.35 55.95 58.45 55.47 54.88 54.77 55.13 54.64 54.75
56.03 55.30 54.99 55.06 55.27 54.44 53.03 51.39 50.27 49.82 51.25 47.38 48.97 51.09 52.44 55.43 55.53 54.55 55.94 55.58 54.79 52.07 46.60 48.85 46.68 43.56 45.98 49.67 49.37 47.97 47.74 47.89 49.78 54.16 53.70 53.48 54.28 54.30 57.85 58.10 56.86 55.96 55.46 55.52 55.28
55.48 55.28 55.20 54.88 54.55 54.21 49.77 49.53 50.32 51.35 46.58 50.59 50.06 51.08 53.13 53.23 51.02 53.30 55.92 53.03 51.52 46.80 49.89 47.05 43.45 48.20 49.75 50.03 50.39 50.37 48.63 48.58 51.19 54.47 52.69 50.69 50.92 53.70 55.97 58.13 59.01 59.28 58.74 56.87 56.48
54.51 54.52 54.87 54.49 53.74 50.06 47.85 51.34 52.12 49.86 44.36 49.30 50.47 50.38 50.19 52.30 50.76 52.59 54.99 51.80 49.91 47.87 47.36 45.36 47.63 51.10 49.95 48.48 49.98 48.33 48.43 47.80 48.65 52.82 52.71 49.00 46.99 49.84 56.11 58.26 59.60 60.18 61.13 60.48 58.39
54.02 54.23 54.29 53.30 49.37 46.37 47.32 50.60 50.77 50.59 43.20 46.91 49.38 51.69 51.43 50.44 50.24 54.58 54.92 53.13 49.43 46.44 47.37 46.70 49.80 49.65 48.48 47.86 50.26 45.16 50.33 51.56 51.11 47.42 42.89 47.64 40.61 46.02 52.21 53.71 57.51 58.16 59.25 60.26 59.86
53.80 54.08 54.00 52.81 46.10 45.26 48.59 48.84 49.66 51.65 37.05 49.34 48.76 51.27 49.71 50.87 50.91 52.90 55.96 53.35 48.67 48.72 48.18 46.83 47.85 47.83 46.57 48.45 51.39 48.55 52.41 51.13 50.12 46.01 43.26 45.61 42.41 46.69 51.63 50.75 52.53 54.49 58.30 58.96 59.26
53.59 53.86 53.06 47.72 44.02 47.47 48.67 48.51 50.45 43.78 37.96 46.19 47.08 45.63 46.46 48.01 49.72 51.75 52.45 53.85 52.56 48.60 48.09 46.98 49.89 49.29 48.68 52.33 53.32 54.38 50.05 46.78 45.54 43.60 39.19 43.70 43.45 44.99 47.38 49.36 52.19 54.18 55.15 56.76 56.85
53.37 53.22 51.15 50.47 45.48 46.82 48.88 50.02 42.68 39.52 49.55 46.03 43.20 44.09 43.96 45.43 48.26 49.32 48.01 47.14 46.32 42.81 42.36 46.34 47.06 48.73 52.37 49.49 51.34 49.19 44.33 39.50 39.02 38.01 37.92 44.29 44.76 45.73 49.77 52.51 53.77 54.15 54.85 56.25 56.75
52.13 51.11 48.56 50.36 45.98 48.70 49.06 46.53 38.26 46.77 47.79 51.24 45.41 44.12 43.10 45.55 45.56 47.07 45.99 43.83 46.62 45.84 42.17 41.46 41.76 46.85 50.73 50.29 48.17 46.92 44.56 40.00 35.03 35.42 37.58 44.09 42.15 46.32 52.42 54.40 54.60 55.97 55.86 56.41 56.11
50.54 43.43 43.58 46.52 48.79 47.94 46.55 39.93 42.01 46.45 50.81 48.60 47.64 42.26 42.26 44.50 44.47 45.21 44.07 44.21 46.83 46.96 43.39 40.79 42.46 49.51 53.48 53.25 52.24 47.90 44.39 45.86 40.95 39.18 36.98 39.50 44.81 48.84 52.68 53.05 54.80 54.85 55.58 55.19 56.29
44.09 42.70 45.06 48.65 49.94 48.14 41.59 40.03 45.05 51.02 51.87 50.46 45.55 46.15 42.84 45.65 43.39 42.99 43.05 47.37 47.63 49.27 48.11 45.69 41.83 46.88 52.37 53.38 53.26 48.62 50.29 43.26 40.95 35.42 34.10 38.69 41.22 42.62 48.41 50.46 53.22 53.93 53.78 54.37 56.39
43.74 43.10 46.55 49.95 49.55 45.49 38.22 38.63 45.90 50.91 51.30 49.24 47.33 47.03 48.35 48.00 44.55 41.89 44.24 47.97 50.86 48.93 48.65 45.39 43.85 44.32 48.77 46.79 47.07 47.75 45.47 44.51 42.41 40.58 36.99 35.71 40.60 46.56 49.13 50.75 51.60 53.05 53.58 54.65 56.51
42.48 39.79 51.00 49.32 44.63 38.76 39.06 43.81 48.00 50.87 52.70 52.11 51.46 50.88 48.97 48.61 45.44 45.40 46.58 50.06 55.16 51.27 46.95 46.42 43.02 40.55 44.39 49.35 50.42 48.00 45.92 45.07 40.54 38.91 40.30 39.29 41.14 51.39 50.89 51.59 52.24 53.36 54.30 55.27 56.36
38.37 41.81 51.62 49.43 40.67 39.59 42.66 46.74 50.03 49.91 49.56 49.70 49.82 51.41 51.43 48.83 45.69 49.88 50.69 54.79 55.71 53.35 50.74 50.13 43.47 40.49 43.38 45.95 47.98 46.17 47.82 46.19 43.23 42.51 40.15 38.82 41.63 52.46 52.83 51.94 52.99 52.99 54.12 53.92 54.33
40.71 40.95 46.92 46.04 43.06 41.30 41.65 44.32 46.87 50.74 49.91 50.54 50.14 52.21 50.00 49.76 50.80 49.58 51.97 55.63 55.74 54.82 56.37 52.56 43.54 42.28 39.50 42.08 45.07 45.97 47.81 48.03 44.81 40.05 40.65 41.66 44.22 47.29 51.20 52.04 53.59 53.65 53.38 53.32 54.43
40.01 39.97 45.75 42.61 44.41 42.16 42.22 44.89 45.25 45.46 49.19 48.32 47.95 52.24 49.51 47.94 48.91 49.41 50.98 53.23 55.56 55.75 52.01 46.78 42.82 44.74 45.59 47.74 48.98 47.84 47.36 47.84 45.72 44.94 43.75 44.76 44.95 48.45 51.49 52.10 52.79 54.44 54.56 54.83 54.31
38.69 41.97 44.64 44.67 45.81 44.68 42.81 43.35 45.43 47.44 47.91 47.34 49.82 54.73 53.44 50.00 50.12 48.43 50.52 48.84 49.61 51.87 48.64 48.44 43.28 45.57 45.23 49.86 49.82 47.42 49.41 49.90 49.76 48.91 47.43 48.84 47.76 52.60 53.85 53.87 54.20 55.28 55.61 54.95 53.95
42.55 46.63 47.64 45.26 44.86 43.50 42.49 44.68 46.43 48.49 49.47 50.73 53.69 53.77 51.63 53.06 55.07 53.15 52.70 51.23 49.44 47.94 48.48 48.09 46.63 44.29 40.76 47.45 46.47 41.38 47.62 49.78 50.75 51.45 50.21 46.92 48.95 54.56 53.63 54.60 54.24 53.96 54.89 55.13 55.89
MSLP
1019.92 1019.31 1018.57 1018.29 1017.90 1017.18 1016.67 1016.08 1015.67 1015.32 1014.95 1014.43 1014.04 1013.72 1013.46 1013.66 1013.28 1013.07 1012.04 1010.68 1010.47 1010.97 1011.35 1012.09 1012.06 1012.27 1012.50 1013.32 1014.04 1014.88 1016.34 1017.49 1017.49 1017.32 1016.74 1016.68 1016.95 1017.17 1017.19 1017.41 1017.43 1017.59 1017.85 1018.16 1019.06
1019.83 1019.42 1018.73 1018.04 1017.79 1017.22 1016.43 1015.97 1015.37 1015.02 1014.68 1014.25 1013.89 1013.72 1013.28 1013.49 1013.20 1012.10 1010.20 1010.16 1010.40 1011.04 1011.66 1011.94 1012.43 1012.49 1013.03 1013.55 1014.21 1014.91 1016.15 1016.12 1016.02 1015.97 1016.18 1016.49 1016.70 1017.02 1017.28 1017.45 1017.80 1018.08 1018.31 1018.66 1019.00
1019.93 1019.35 1018.86 1018.06 1017.50 1017.10 1016.42 1015.69 1015.17 1014.65 1014.36 1014.03 1013.74 1013.61 1013.30 1013.13 1012.55 1010.95 1010.09 1010.34 1010.71 1011.06 1011.22 1011.60 1011.95 1012.36 1013.10 1013.53 1013.99 1014.46 1014.94 1015.19 1015.26 1015.39 1015.82 1016.18 1016.53 1016.81 1017.08 1017.59 1017.47 1017.94 1018.57 1018.97 1019.33
1020.08 1019.41 1018.79 1018.08 1017.29 1016.93 1016.23 1015.44 1014.90 1014.24 1014.01 1013.76 1013.58 1013.48 1013.39 1013.09 1011.95 1010.23 1010.09 1010.64 1011.00 1011.02 1011.22 1011.63 1011.98 1012.61 1013.09 1013.60 1013.93 1014.42 1014.43 1014.58 1014.87 1015.16 1015.46 1016.01 1016.32 1016.80 1016.95 1016.70 1016.61 1017.52 1018.00 1018.80 1019.43
1020.00 1019.38 1018.74 1017.99 1017.22 1016.51 1016.03 1015.16 1014.44 1013.86 1013.62 1013.46 1013.37 1013.32 1013.48 1012.58 1010.76 1009.75 1010.63 1010.87 1011.04 1011.00 1011.04 1011.46 1012.00 1012.31 1012.84 1013.43 1013.94 1014.15 1014.34 1014.43 1014.48 1015.01 1015.45 1015.65 1015.81 1016.35 1016.71 1016.63 1016.52 1017.37 1018.03 1018.53 1019.05
1019.96 1019.28 1018.51 1017.83 1017.16 1016.26 1015.69 1014.67 1014.08 1013.56 1013.26 1013.14 1013.17 1013.25 1013.02 1011.60 1009.68 1009.73 1010.38 1010.79 1010.55 1010.83 1010.56 1010.80 1011.31 1011.71 1012.83 1013.44 1013.75 1014.25 1014.48 1014.72 1014.74 1015.19 1015.45 1016.04 1016.49 1016.43 1016.11 1016.58 1017.08 1017.67 1017.95 1018.30 1018.57
1019.87 1019.30 1018.53 1017.86 1017.07 1016.09 1015.12 1014.42 1013.77 1013.19 1012.89 1012.90 1013.10 1013.10 1012.40 1010.75 1009.52 1009.99 1010.12 1010.24 1010.14 1010.44 1010.77 1010.69 1010.84 1011.72 1012.87 1013.69 1014.11 1014.41 1014.84 1014.93 1015.16 1015.46 1015.70 1016.00 1016.39 1015.69 1015.52 1016.04 1016.64 1017.23 1017.62 1017.98 1018.31
1020.05 1019.40 1018.68 1018.00 1016.95 1015.93 1014.62 1014.19 1013.50 1012.86 1012.67 1012.80 1013.09 1012.97 1011.64 1010.25 1009.68 1010.15 1010.02 1010.14 1010.25 1010.24 1010.42 1010.69 1010.77 1012.00 1013.20 1014.15 1014.43 1014.93 1015.21 1015.66 1015.18 1015.46 1015.67 1016.04 1015.20 1014.88 1015.50 1016.06 1016.56 1016.80 1017.05 1017.41 1017.71
1020.19 1019.38 1018.70 1017.97 1016.83 1015.75 1014.43 1013.98 1013.37 1012.88 1012.75 1012.92 1013.03 1012.60 1011.17 1010.32 1010.05 1009.40 1009.72 1009.78 1009.84 1010.22 1010.24 1010.60 1011.19 1012.99 1013.88 1014.56 1015.33 1015.75 1015.82 1015.68 1015.36 1015.40 1015.76 1016.12 1015.02 1014.91 1015.34 1015.85 1016.28 1016.45 1016.56 1016.89 1017.23
1020.12 1019.28 1018.71 1017.76 1016.84 1015.65 1014.26 1013.55 1013.35 1013.01 1012.82 1012.82 1012.76 1012.49 1010.74 1010.09 1009.54 1009.35 1009.48 1009.75 1009.75 1010.13 1010.67 1011.05 1012.28 1013.27 1014.11 1014.73 1014.79 1014.97 1015.05 1015.11 1014.98 1014.97 1015.49 1015.94 1014.86 1015.07 1015.48 1015.62 1015.72 1016.00 1016.15 1016.36 1016.48
1020.22 1019.34 1018.56 1017.80 1016.87 1015.68 1014.57 1013.63 1014.17 1013.75 1013.17 1013.14 1012.69 1011.85 1010.72 1009.78 1009.37 1009.35 1009.25 1009.62 1009.79 1010.31 1011.07 1011.73 1012.57 1013.35 1013.18 1013.38 1013.34 1013.68 1014.07 1014.14 1014.31 1014.24 1015.20 1015.36 1015.20 1014.94 1015.20 1015.65 1016.03 1016.07 1015.51 1015.42 1015.82
1020.25 1019.37 1018.52 1017.59 1016.45 1015.69 1015.65 1015.82 1016.37 1016.24 1014.51 1012.25 1011.81 1011.46 1010.58 1010.05 1009.56 1009.08 1008.94 1009.60 1009.96 1010.61 1011.09 1011.92 1012.12 1011.92 1011.87 1012.21 1012.59 1013.02 1013.58 1013.60 1014.13 1014.41 1014.99 1015.33 1015.08 1015.06 1014.97 1014.73 1015.12 1015.03 1014.87 1015.33 1015.24
1020.18 1019.37 1018.61 1017.33 1016.23 1016.04 1016.60 1016.09 1015.90 1015.82 1015.09 1012.45 1011.26 1010.60 1009.79 1009.81 1009.34 1008.95 1008.98 1009.53 1010.03 1010.64 1011.16 1011.54 1011.61 1011.23 1011.26 1011.61 1012.20 1012.59 1013.01 1013.54 1014.24 1014.70 1015.06 1015.32 1015.14 1014.97 1014.74 1014.65 1014.61 1014.52 1014.64 1014.59 1014.62
1020.08 1019.54 1018.80 1017.22 1016.55 1017.24 1016.36 1015.82 1015.37 1015.31 1014.66 1012.40 1010.80 1009.24 1009.29 1009.25 1009.15 1008.62 1008.71 1009.21 1010.05 1010.66 1011.14 1011.53 1011.22 1011.14 1011.05 1011.48 1011.87 1012.40 1012.38 1013.25 1014.29 1015.41 1016.05 1016.26 1016.44 1015.17 1014.93 1014.61 1014.58 1014.23 1013.91 1013.68 1013.84
1020.07 1019.57 1018.99 1018.51 1018.29 1017.50 1015.91 1015.22 1014.78 1014.84 1013.77 1011.40 1009.98 1008.80 1008.91 1009.28 1009.08 1008.76 1008.78 1009.14 1010.03 1010.63 1011.21 1011.52 1011.27 1011.10 1011.12 1011.20 1011.50 1012.39 1012.65 1013.69 1014.96 1015.96 1016.72 1016.84 1016.93 1015.31 1015.04 1014.59 1014.11 1013.66 1013.45 1013.83 1013.51
1019.88 1019.34 1019.03 1018.57 1018.48 1016.44 1015.69 1015.19 1014.80 1014.77 1012.55 1010.69 1009.57 1009.15 1009.29 1009.24 1009.13 1009.06 1009.17 1009.41 1010.04 1010.92 1011.31 1011.65 1011.03 1010.86 1010.71 1010.85 1011.44 1012.62 1013.83 1014.90 1015.89 1016.73 1017.58 1017.80 1017.55 1016.04 1015.13 1014.75 1014.02 1013.55 1013.50 1013.56 1013.35
1019.44 1018.74 1018.89 1018.52 1017.12 1016.06 1015.53 1015.50 1015.28 1014.02 1011.86 1010.84 1009.98 1009.69 1009.66 1009.76 1009.61 1009.45 1009.74 1010.21 1010.90 1011.63 1012.09 1011.89 1011.19 1010.74 1010.49 1011.05 1011.88 1012.63 1014.23 1016.13 1017.14 1017.89 1018.59 1017.90 1017.58 1015.74 1014.75 1014.42 1014.29 1013.99 1013.61 1013.13 1012.94
1018.99 1018.04 1017.68 1017.04 1016.26 1016.02 1015.93 1015.80 1014.68 1013.13 1011.76 1010.58 1010.09 1010.08 1010.20 1010.05 1010.02 1010.13 1010.42 1010.98 1011.32 1011.86 1012.71 1012.71 1011.99 1011.04 1010.55 1011.15 1012.13 1013.52 1014.65 1016.13 1017.66 1018.88 1018.85 1017.87 1016.96 1014.98 1014.27 1014.17 1014.10 1014.13 1014.02 1013.57 1013.44
1018.60 1017.73 1017.62 1016.21 1016.12 1016.44 1016.24 1016.01 1014.62 1013.17 1011.80 1010.84 1010.21 1010.27 1010.31 1010.21 1010.34 1010.63 1010.91 1011.25 1011.24 1011.55 1012.30 1012.79 1012.15 1011.20 1011.07 1011.32 1012.16 1013.61 1014.83 1015.84 1017.39 1018.86 1019.14 1017.93 1016.50 1014.96 1014.12 1014.10 1014.14 1014.25 1014.28 1014.21 1013.91
1019.79 1018.92 1017.43 1016.07 1016.07 1016.18 1016.63 1015.96 1014.40 1012.83 1011.67 1010.74 1010.42 1010.31 1010.37 1010.53 1010.62 1010.87 1011.12 1010.66 1010.90 1010.90 1011.22 1012.21 1012.47 1011.94 1011.80 1011.74 1012.76 1013.27 1014.81 1015.99 1017.36 1018.79 1019.07 1018.12 1017.11 1015.69 1014.82 1014.37 1014.48 1014.81 1015.09 1014.96 1014.64
1020.08 1019.06 1016.52 1016.10 1016.25 1016.51 1017.01 1016.05 1014.30 1012.22 1011.60 1010.83 1010.43 1010.40 1010.59 1010.70 1010.83 1011.02 1010.96 1010.65 1010.59 1011.12 1011.41 1012.23 1012.73 1012.79 1012.32 1012.48 1012.95 1013.93 1015.03 1016.57 1017.70 1018.74 1019.02 1018.81 1016.83 1015.49 1015.05 1014.89 1014.77 1015.16 1015.47 1015.63 1015.56
1020.64 1019.32 1016.67 1016.31 1017.00 1017.63 1017.13 1015.78 1014.21 1012.48 1011.15 1010.68 1010.39 1010.46 1010.76 1010.89 1011.04 1011.11 1010.93 1010.75 1010.61 1010.97 1011.95 1012.58 1013.45 1013.71 1013.41 1012.86 1013.05 1013.50 1014.53 1015.77 1017.60 1018.75 1018.95 1018.60 1016.56 1015.30 1015.17 1015.22 1015.21 1015.25 1015.33 1015.54 1015.80
1021.69 1019.73 1016.97 1016.67 1017.76 1017.86 1016.74 1015.57 1014.25 1012.88 1011.67 1010.94 1010.83 1010.71 1010.79 1011.06 1011.32 1011.08 1010.88 1010.70 1010.67 1011.08 1011.75 1012.51 1014.16 1014.50 1013.95 1013.62 1013.38 1013.72 1014.50 1015.66 1016.91 1017.72 1018.26 1018.35 1016.43 1015.24 1015.18 1015.10 1015.11 1015.33 1015.48 1015.48 1015.65
1022.03 1020.59 1018.48 1017.75 1018.15 1017.54 1016.89 1015.67 1014.33 1012.86 1012.17 1011.34 1011.20 1010.95 1011.05 1011.38 1011.38 1011.51 1011.35 1010.94 1010.88 1011.48 1011.94 1012.45 1014.37 1014.88 1015.13 1014.55 1014.24 1014.15 1014.40 1015.33 1016.25 1017.56 1017.65 1017.01 1015.85 1015.15 1014.93 1014.86 1015.11 1015.29 1015.44 1015.59 1015.69
1022.36 1021.33 1020.28 1019.36 1018.62 1017.89 1017.10 1016.04 1014.85 1013.68 1012.24 1011.64 1011.56 1011.62 1011.67 1011.96 1011.96 1012.10 1011.84 1011.57 1011.48 1011.90 1012.46 1013.24 1014.69 1014.69 1014.64 1014.31 1014.06 1014.03 1014.27 1014.90 1015.69 1016.03 1016.35 1015.92 1015.66 1014.70 1014.50 1014.95 1015.06 1014.90 1014.85 1015.25 1015.73
1022.56 1021.86 1020.58 1019.75 1018.97 1018.14 1017.44 1016.16 1014.96 1013.68 1012.71 1012.10 1012.06 1011.96 1011.82 1012.15 1012.23 1012.31 1012.25 1012.23 1012.32 1012.45 1013.13 1014.02 1014.96 1014.89 1014.95 1014.39 1014.25 1014.04 1013.97 1014.17 1014.75 1015.38 1015.80 1015.53 1015.12 1014.40 1014.53 1014.66 1014.72 1014.41 1014.22 1014.18 1014.99
1022.37 1021.84 1021.40 1020.10 1019.11 1018.52 1017.56 1016.32 1014.94 1013.98 1012.84 1012.18 1012.06 1012.26 1012.23 1012.12 1012.07 1012.11 1012.32 1012.61 1012.78 1013.24 1013.90 1014.73 1015.67 1016.11 1015.87 1015.02 1014.56 1014.55 1014.01 1014.34 1014.76 1015.27 1015.75 1015.61 1015.09 1014.63 1014.58 1014.50 1014.31 1014.39 1014.41 1014.64 1014.74
Wind_Speed
15 15 16 15 14 16 16 16 15 13 12 13 12 11 10 8 6 0 3 4 6 13 8 6 3 3 4 3 4 3 6 3 7 6 5 5 4 2 1 2 1 3 4 6 8
17 15 16 17 15 16 17 16 17 15 13 12 11 9 9 6 1 2 5 8 15 12 6 6 4 3 3 2 2 5 4 8 7 5 5 6 5 8 5 4 3 4 7 8 6
17 17 15 17 17 16 17 17 17 17 14 13 10 8 8 4 0 4 7 9 14 7 4 4 6 5 3 2 0 2 3 4 4 5 6 7 4 4 7 3 6 12 12 8 4
17 17 17 17 18 17 17 18 17 19 16 13 9 7 7 1 4 2 9 6 12 4 1 4 5 1 4 4 1 1 0 6 4 5 7 8 5 2 6 5 8 12 15 9 8
17 17 17 18 19 19 18 18 19 19 15 11 7 6 3 0 5 4 9 11 7 5 2 4 3 3 5 3 3 1 2 3 4 8 4 7 7 4 8 2 11 11 11 10 9
17 18 19 19 20 21 19 19 19 18 13 8 5 4 1 3 1 7 9 7 4 4 2 3 3 1 6 2 2 3 4 3 2 6 4 4 3 1 4 8 10 11 11 9 9
19 19 19 20 21 22 22 20 20 16 8 4 3 2 0 4 4 7 7 5 4 4 3 3 6 7 2 3 1 2 4 4 1 4 1 4 5 13 6 13 14 13 10 9 9
19 18 19 21 22 23 26 21 21 11 5 2 2 2 5 3 1 5 1 2 5 3 2 5 7 8 4 1 6 6 5 2 3 7 2 8 13 11 10 14 13 13 11 11 11
18 18 19 21 23 24 28 21 11 5 5 2 1 1 4 1 2 2 3 2 3 4 1 4 6 5 3 4 4 6 3 5 6 7 4 6 10 5 11 13 13 13 11 9 8
19 19 19 20 22 24 29 8 1 2 0 2 2 3 1 1 2 1 2 3 2 4 5 6 6 4 4 4 5 4 4 4 6 7 6 7 22 3 8 12 13 12 10 8 9
19 19 20 20 22 21 13 4 9 7 8 2 7 3 4 7 1 3 3 5 0 7 2 3 5 3 9 10 5 2 3 4 4 4 6 11 13 9 7 11 8 9 13 13 14
19 19 20 22 21 17 2 8 6 6 9 5 7 6 6 2 2 1 5 4 2 2 1 4 2 4 6 1 4 3 3 5 1 2 4 0 10 2 5 11 14 13 15 13 14
18 19 21 25 23 5 3 8 2 4 2 8 5 4 5 7 5 4 6 3 2 2 1 3 5 7 5 5 3 3 4 1 2 2 2 5 8 5 3 2 7 10 10 10 14
17 18 19 30 6 5 4 3 5 5 5 7 3 7 4 3 2 3 4 5 3 2 5 1 4 5 8 3 3 3 3 5 4 4 2 3 5 4 4 7 6 9 12 15 12
17 16 15 8 4 4 5 8 6 3 3 1 3 0 1 7 3 2 1 5 6 3 4 6 4 7 4 4 0 3 4 5 4 3 1 5 3 8 5 6 6 9 13 7 10
17 16 14 2 2 8 8 8 4 6 1 2 2 3 4 2 1 2 2 4 3 4 1 5 3 3 4 3 4 6 5 7 5 3 5 6 3 7 3 4 8 4 3 7 9
20 20 6 1 6 3 5 4 6 3 4 1 3 2 2 1 0 2 2 2 4 4 4 6 5 4 2 3 4 5 6 4 6 7 4 4 2 9 6 5 4 9 12 11 10
24 20 3 6 3 5 3 6 4 2 4 4 2 3 5 5 3 1 3 1 1 5 3 3 8 2 4 2 4 3 4 6 1 1 5 4 4 6 4 2 4 6 8 9 10
21 4 3 4 4 2 6 4 4 3 3 5 2 4 1 2 3 2 5 4 7 8 8 5 5 4 2 3 3 1 2 3 7 3 2 3 7 7 2 1 5 8 9 10 13
4 5 5 4 4 4 6 4 4 4 5 2 2 3 3 1 4 5 6 3 5 11 4 7 2 3 4 3 5 2 4 3 4 0 3 5 5 7 5 6 3 7 9 11 12
4 5 4 1 2 7 2 5 6 7 4 2 2 2 1 1 4 5 5 3 2 2 6 5 5 6 2 1 5 1 1 6 5 4 5 2 8 5 5 7 6 6 7 8 9
2 3 3 2 5 1 1 4 5 6 3 2 3 2 1 2 3 2 3 4 4 7 6 1 6 1 6 3 2 1 3 5 6 4 2 4 9 3 3 5 3 5 6 6 6
3 4 4 4 3 2 5 5 4 4 4 4 3 3 3 3 4 2 3 1 5 3 7 6 3 3 9 7 4 1 2 5 4 3 5 5 8 2 2 4 5 4 7 7 7
3 3 5 5 0 4 3 5 5 4 5 2 2 3 4 7 6 3 5 6 5 4 8 8 4 7 7 6 3 5 3 3 4 4 4 7 6 4 6 7 3 5 3 7 8
2 3 2 2 3 1 1 3 5 6 2 6 4 3 1 4 4 5 5 5 5 3 4 5 4 4 4 6 3 3 1 4 5 4 5 3 6 7 7 3 3 4 3 7 9
1 2 4 2 3 0 0 3 4 5 1 3 5 3 2 4 2 1 1 1 2 5 3 3 1 2 2 2 3 3 4 3 2 3 7 4 6 2 2 1 4 2 1 0 4
2 2 2 3 2 2 4 4 4 5 2 2 6 4 3 2 4 3 2 1 3 2 2 3 5 4 4 4 4 5 3 3 2 4 1 4 3 3 0 2 2 4 3 5 5
Wind_Direction
346 343 337 341 335 327 328 327 327 330 325 319 322 318 320 343 318 131 215 208 180 165 89 103 54 45 59 78 86 116 69 153 193 170 201 174 137 178 284 116 112 6 151 138 133
343 343 336 334 335 326 322 325 323 324 323 320 320 317 312 353 155 217 249 175 148 152 97 142 131 125 59 81 55 87 103 213 182 182 183 162 146 168 153 153 42 62 79 116 133
339 338 337 332 331 327 320 321 323 320 322 319 319 315 308 332 324 204 214 166 150 155 114 155 115 122 96 133 249 100 171 164 216 167 143 145 164 145 141 228 199 169 158 159 154
338 336 335 331 328 327 320 322 322 317 322 318 318 307 304 312 158 178 206 110 118 169 133 110 119 75 108 133 134 334 276 163 156 189 137 156 137 227 180 232 158 169 160 155 170
338 336 335 332 328 326 322 323 318 316 319 315 312 301 250 11 253 237 131 117 148 146 226 147 119 172 111 103 137 59 345 185 164 140 120 139 177 186 212 148 128 140 163 174 184
339 335 337 332 328 325 325 319 315 317 317 314 297 300 243 158 132 164 134 130 152 136 309 120 167 155 97 79 126 108 54 4 78 147 148 133 3 135 209 147 141 160 186 191 195
338 335 335 330 325 324 323 323 316 317 324 333 277 257 333 208 297 150 158 149 183 148 136 255 135 69 55 49 53 59 70 4 55 159 168 109 266 230 189 167 164 183 200 201 211
333 333 332 327 324 327 319 331 319 325 64 91 273 281 239 346 184 133 176 152 186 212 195 145 113 103 79 126 18 60 38 34 256 145 204 123 263 221 174 166 185 194 200 209 210
328 332 331 326 325 327 319 329 318 46 89 104 2 56 273 218 250 286 150 282 125 93 344 103 63 91 92 104 24 16 204 209 329 200 135 187 277 319 167 182 190 203 214 216 217
330 331 327 329 324 325 321 309 125 315 240 179 260 36 343 210 285 180 202 333 0 95 47 52 50 55 47 76 248 208 221 223 216 214 190 213 254 335 194 200 202 206 225 228 217
330 329 328 325 322 329 339 14 11 348 35 253 283 264 271 281 252 204 181 121 34 62 99 27 73 239 249 220 212 189 197 243 225 212 153 231 267 251 229 221 217 217 224 229 238
330 330 329 325 325 325 313 86 103 265 308 260 242 271 260 254 308 189 130 133 151 161 153 26 300 248 320 98 148 147 254 268 114 11 156 71 268 332 268 222 210 223 232 234 243
331 332 332 324 325 26 324 124 207 149 221 296 225 210 230 147 210 226 129 134 122 101 66 157 264 302 18 354 112 216 200 108 59 45 89 348 313 351 327 245 212 243 246 241 234
332 333 337 326 68 326 288 330 284 189 57 281 263 266 160 154 271 209 182 134 54 157 163 283 295 334 342 321 131 332 241 122 117 61 277 13 279 313 306 296 247 243 239 244 245
329 334 339 345 283 325 292 320 319 81 42 306 211 13 68 147 185 338 143 52 160 186 95 256 312 326 331 295 178 289 60 92 96 130 104 354 58 275 338 315 282 255 256 267 252
327 330 343 56 288 248 313 312 61 45 335 32 185 151 119 349 45 91 107 67 145 133 21 227 262 220 223 25 72 119 55 39 53 70 24 333 86 292 297 288 308 298 272 252 270
325 317 312 255 245 321 326 26 49 119 332 86 182 157 107 182 179 96 120 123 149 86 341 342 283 315 205 72 24 85 65 352 3 8 239 299 25 244 288 310 264 293 315 323 323
321 316 224 222 307 1 41 47 63 299 272 305 103 90 168 166 226 103 108 221 168 98 113 141 326 359 342 108 172 41 138 147 225 252 270 318 245 261 229 303 308 301 301 312 326
317 333 310 271 207 148 71 55 211 223 279 323 36 101 243 215 151 135 181 215 214 169 163 157 272 296 34 110 107 189 42 148 105 24 42 261 296 320 272 281 352 337 334 324 339
343 349 283 314 160 61 73 238 256 228 326 326 95 129 177 155 151 147 189 213 240 189 143 213 308 257 169 100 38 132 145 36 13 156 286 292 284 245 310 292 304 327 321 330 337
29 9 272 150 68 46 142 242 285 264 222 293 43 39 55 334 171 178 193 272 241 66 120 139 117 280 59 216 203 78 343 58 115 123 172 274 275 225 259 278 216 264 306 322 339
15 6 293 42 53 12 184 206 284 293 316 318 111 57 64 174 128 206 181 233 326 149 137 113 129 219 237 265 218 141 177 131 120 243 159 149 272 281 279 317 217 277 301 320 325
1 269 313 84 127 308 295 285 265 307 303 350 47 21 12 60 86 45 22 8 35 126 162 181 30 35 348 357 357 334 110 96 102 74 192 135 266 165 247 249 245 307 323 329 324
37 356 323 54 1 127 353 297 305 283 263 342 47 49 38 30 12 61 19 349 10 79 56 88 104 143 185 212 199 313 315 141 136 113 181 225 285 300 253 243 271 306 314 329 327
55 272 202 292 337 91 36 295 321 320 328 18 22 48 274 42 29 32 2 360 8 30 55 92 125 150 212 234 225 248 321 171 211 191 169 269 209 263 242 254 222 256 11 6 345
123 9 351 281 331 278 138 268 232 272 279 346 107 11 98 112 138 2 59 41 244 351 63 8 174 89 267 264 335 263 298 260 134 132 263 285 279 272 339 302 227 57 80 78 338
294 288 100 288 54 91 228 247 269 336 317 208 163 100 71 168 202 226 216 282 279 352 93 73 123 83 267 338 6 353 280 322 103 71 317 235 285 279 276 310 1 313 290 343 309